Weather History for KPLN - August, 2014

Change the Weather History Date:

Wednesday, August 13, 2014

  Actual Average Record
Temperature  
Mean Temperature 63 °F -  
Max Temperature 71 °F 78 °F 94 °F (1988)
Min Temperature 51 °F 52 °F 34 °F (1950)
Degree Days  
Heating Degree Days 2    
Growing Degree Days 13 (Base 50)    
Moisture  
Dew Point 50 °F    
Average Humidity 71    
Maximum Humidity 87    
Minimum Humidity 49    
Precipitation  
Precipitation 0.00 in - - ()
Sea Level Pressure  
Sea Level Pressure 29.93 in    
Wind  
Wind Speed 13 mph (NW)    
Max Wind Speed 18 mph    
Max Gust Speed 29 mph    
Visibility 10 miles    
Events      
Averages and records for this station are not official NWS values.
T = Trace of Precipitation, MM = Missing Value Source: NWS Daily Summary

Daily Weather History Graph

Daily Weather History Graph

Search for Another Location

Airport or City:

Trip Planner

Search our weather history database for the weather conditions in past years. The results will help you decide how hot, cold, wet, or windy it might be!

Date:

Astronomy

Aug. 13, 2014 Rise Set
Actual Time 6:37 AM EDT 8:49 PM EDT
Civil Twilight 6:04 AM EDT 9:22 PM EDT
Nautical Twilight 5:24 AM EDT 10:02 PM EDT
Astronomical Twilight 4:38 AM EDT 10:47 PM EDT
Moon 10:20 PM EDT (8/13) 10:17 AM EDT (8/13)
Length of Visible Light 15h 17m
Length of Day
14h 12m
Waning Gibbous, 88% of the Moon is Illuminated
Aug 13
Waning Gibbous
Aug 17
Last Quarter
Aug 25
New
Sep 2
First Quarter
Sep 8
Full

Hourly Weather History & Observations

Time (EDT) Temp. Dew Point Humidity Pressure Visibility Wind Dir Wind Speed Gust Speed Precip Events Conditions
12:26 AM 55.9 °F 52.0 °F 87% 29.83 in 10.0 mi WNW 11.5 mph 20.7 mph N/A   Overcast
12:39 AM 55.9 °F 52.0 °F 87% 29.83 in 10.0 mi WNW 11.5 mph - N/A   Overcast
12:54 AM 55.9 °F 52.0 °F 87% 29.84 in 10.0 mi WNW 12.7 mph - N/A   Overcast
1:54 AM 55.0 °F 51.1 °F 86% 29.84 in 10.0 mi WNW 10.4 mph - N/A   Partly Cloudy
2:54 AM 55.9 °F 52.0 °F 87% 29.84 in 10.0 mi WNW 12.7 mph - N/A   Clear
3:54 AM 55.9 °F 51.1 °F 84% 29.84 in 10.0 mi WNW 13.8 mph - N/A   Clear
4:54 AM 55.9 °F 52.0 °F 87% 29.85 in 10.0 mi WNW 12.7 mph - N/A   Clear
5:54 AM 55.9 °F 52.0 °F 87% 29.86 in 10.0 mi WNW 11.5 mph - N/A   Clear
6:54 AM 55.0 °F 51.1 °F 86% 29.89 in 10.0 mi WNW 10.4 mph - N/A   Clear
11:54 AM 68.0 °F 51.1 °F 55% 29.95 in 10.0 mi WNW 13.8 mph 20.7 mph N/A   Clear
12:54 PM 69.1 °F 50.0 °F 51% 29.96 in 10.0 mi NW 11.5 mph 23.0 mph N/A   Clear
1:54 PM 70.0 °F 51.1 °F 51% 29.96 in 10.0 mi NW 12.7 mph - N/A   Clear
2:54 PM 71.1 °F 51.1 °F 49% 29.96 in 10.0 mi WNW 16.1 mph 26.5 mph N/A   Scattered Clouds
3:54 PM 71.1 °F 51.1 °F 49% 29.97 in 10.0 mi NNW 18.4 mph 28.8 mph N/A   Scattered Clouds
5:54 PM 66.9 °F 50.0 °F 54% 29.99 in 10.0 mi NNW 18.4 mph 24.2 mph N/A   Mostly Cloudy
6:54 PM 64.0 °F 46.9 °F 54% 30.01 in 10.0 mi NW 18.4 mph 27.6 mph N/A   Partly Cloudy
7:54 PM 62.1 °F 46.9 °F 58% 30.01 in 10.0 mi NW 18.4 mph 26.5 mph N/A   Scattered Clouds
8:54 PM 57.0 °F 46.0 °F 67% 30.02 in 10.0 mi NW 11.5 mph - N/A   Clear
9:54 PM 55.0 °F 46.0 °F 72% 30.05 in 10.0 mi NW 8.1 mph - N/A   Clear
10:54 PM 51.1 °F 45.0 °F 80% 30.05 in 10.0 mi West 4.6 mph - N/A   Clear